N4RCT Weather Reports


Display with metric or nautical units.
time (UTC)temp
F
wind
direction
speed
MPH
gust
MPH
rain 1hr
in
rain 24hr
in
rain mn
in
humidity
%
barometer
mb
20260507130216 64 106 0.0 0.0 0.00 1.21 1.21 99 1011.4
20260507125714 64 118 0.0 0.0 0.00 1.21 1.21 99 1011.4
20260507125212 63 103 0.0 0.0 0.00 1.21 1.21 99 1011.1
20260507124708 63 85 0.0 0.0 0.00 1.21 1.21 99 1010.9
20260507124205 63 109 0.0 0.0 0.00 1.21 1.21 99 1010.6
20260507123703 63 99 0.0 0.0 0.00 1.21 1.21 99 1010.7
20260507123200 63 99 0.0 0.0 0.00 1.21 1.21 99 1010.6
20260507122655 63 101 0.0 0.0 0.00 1.21 1.21 99 1010.3
20260507122151 63 135 0.0 0.0 0.00 1.21 1.21 99 1010.4
20260507121648 63 131 0.0 0.0 0.00 1.21 1.21 99 1010.4
20260507121144 63 102 0.0 0.0 0.00 1.21 1.21 99 1010.2
20260507120640 63 99 0.0 0.0 0.00 1.21 1.21 99 1010.0
20260507120137 63 111 0.0 0.0 0.07 1.21 1.21 99 1010.4
20260507115633 63 114 0.0 0.0 0.12 1.21 1.21 99 1010.2
20260507115129 63 115 0.0 0.0 0.17 1.20 1.20 99 1010.0
20260507114625 63 89 1.0 1.0 0.31 1.19 1.19 99 1010.4
20260507114122 63 137 0.0 0.0 0.38 1.17 1.17 99 1010.8
20260507113620 63 120 0.0 0.0 0.31 1.14 1.14 99 1010.7
20260507113116 63 123 0.0 0.0 0.12 1.11 1.11 99 1010.8
20260507112614 63 122 0.0 0.0 0.05 1.09 1.09 99 1010.9
20260507112111 63 80 0.0 0.0 0.17 1.09 1.09 99 1010.2
20260507111608 63 153 0.0 0.0 0.73 1.08 1.08 99 1010.1
20260507111104 63 93 0.0 1.0 1.04 1.06 1.06 99 1009.8
20260507110601 63 142 0.0 0.0 0.83 0.98 0.98 99 1010.8
20260507110057 63 129 0.0 0.0 0.42 0.90 0.90 99 1010.5
20260507105554 63 116 0.0 0.0 0.19 0.84 0.84 99 1010.5
20260507105050 63 111 0.0 0.0 0.12 0.82 0.82 99 1009.9
20260507104548 63 109 0.0 0.0 0.12 0.82 0.82 99 1009.8
20260507104044 63 85 0.0 0.0 0.00 0.80 0.80 99 1009.9
20260507103540 63 112 0.0 0.0 0.00 0.80 0.80 99 1009.4
20260507103037 63 114 0.0 0.0 0.00 0.80 0.80 99 1009.3
20260507102534 63 149 0.0 0.0 0.00 0.80 0.80 99 1009.2
20260507102031 63 117 0.0 0.0 0.00 0.80 0.80 99 1009.4
20260507101525 63 81 0.0 0.0 0.00 0.80 0.80 99 1009.4
20260507101022 63 111 0.0 0.0 0.07 0.80 0.80 99 1009.4
20260507100520 63 97 0.0 0.0 0.19 0.80 0.80 99 1009.9
20260507100018 63 145 0.0 0.0 0.35 0.79 0.79 99 1009.9
20260507095515 63 85 0.0 1.0 1.02 0.77 0.77 99 1009.7
20260507095011 64 122 0.0 0.0 0.83 0.74 0.74 99 1010.3
20260507094508 63 81 1.0 1.0 0.05 0.61 0.61 99 1011.0
20260507094005 63 110 0.0 0.0 0.00 0.60 0.60 99 1010.4
20260507093502 63 100 0.0 0.0 0.07 0.60 0.60 99 1009.8
20260507093001 63 131 0.0 0.0 0.19 0.60 0.60 99 1009.4
20260507092456 63 113 0.0 0.0 0.12 0.59 0.59 99 1009.7
20260507091954 63 99 0.0 0.0 0.00 0.57 0.57 99 1009.5
20260507091450 63 143 0.0 0.0 0.00 0.57 0.57 99 1009.7
20260507090946 63 111 0.0 0.0 0.00 0.57 0.57 99 1009.4
20260507090442 63 105 0.0 0.0 0.00 0.57 0.57 99 1009.7
20260507085939 63 83 0.0 0.0 0.00 0.57 0.57 99 1009.9
20260507085436 63 116 0.0 0.0 0.00 0.57 0.57 99 1009.8
20260507084933 63 120 0.0 0.0 0.00 0.57 0.57 99 1009.6
20260507084430 63 133 0.0 0.0 0.00 0.57 0.57 99 1009.7
20260507083927 63 115 0.0 0.0 0.00 0.57 0.57 99 1009.7
20260507083423 63 98 0.0 0.0 0.00 0.57 0.57 99 1009.5
20260507082920 63 87 0.0 0.0 0.05 0.57 0.57 99 1009.5
20260507082416 63 109 0.0 0.0 0.05 0.57 0.57 99 1009.6
20260507081913 63 123 0.0 0.0 0.00 0.56 0.56 99 1009.3
20260507081409 63 112 0.0 0.0 0.00 0.56 0.56 99 1009.9
20260507080906 63 133 0.0 0.0 0.00 0.56 0.56 99 1010.1
20260507080402 63 138 0.0 0.0 0.00 0.56 0.56 99 1010.1
20260507075857 63 152 0.0 0.0 0.00 0.56 0.56 99 1009.7
20260507075353 63 126 0.0 0.0 0.00 0.56 0.56 99 1009.4
20260507074850 63 116 0.0 0.0 0.00 0.56 0.56 99 1009.5
20260507074347 63 106 0.0 0.0 0.00 0.56 0.56 99 1009.8
20260507073845 63 126 0.0 0.0 0.00 0.56 0.56 99 1010.1
20260507073341 63 121 0.0 0.0 0.00 0.56 0.56 99 1010.1
20260507072838 63 126 0.0 0.0 0.00 0.56 0.56 99 1010.0
20260507072336 64 130 0.0 0.0 0.00 0.56 0.56 99 1010.1
20260507071833 63 122 0.0 0.0 0.07 0.56 0.56 99 1010.2
20260507071330 64 124 0.0 0.0 0.12 0.56 0.56 99 1010.1
20260507070826 64 116 0.0 0.0 0.12 0.55 0.55 99 1010.2
20260507070324 64 122 0.0 0.0 0.14 0.54 0.54 99 1010.5
20260507065820 64 108 0.0 0.0 0.12 0.53 0.53 99 1010.7
20260507065317 64 122 0.0 0.0 0.24 0.52 0.52 99 1010.7
20260507064814 64 117 0.0 0.0 0.42 0.51 0.51 99 1010.7
20260507064313 64 117 0.0 1.0 0.83 0.48 0.48 99 1010.1
20260507063810 64 124 0.0 0.0 0.90 0.44 0.44 99 1011.0
20260507063307 64 128 0.0 0.0 0.42 0.34 0.34 99 1010.9
20260507062804 64 123 0.0 0.0 0.31 0.30 0.30 99 1011.7
20260507062301 64 111 0.0 0.0 0.24 0.27 0.27 99 1011.2
20260507061759 64 119 0.0 0.0 0.24 0.25 0.25 99 1011.6
20260507061256 64 111 0.0 0.0 0.19 0.23 0.23 99 1011.6
20260507060755 64 90 0.0 0.0 0.24 0.21 0.21 99 1011.7
20260507060251 64 141 0.0 0.0 0.35 0.20 0.20 99 1011.3
20260507055747 64 129 0.0 0.0 0.26 0.17 0.17 99 1011.1
20260507055243 64 120 0.0 0.0 0.12 0.15 0.15 99 1011.3
20260507054739 64 120 0.0 0.0 0.05 0.13 0.13 99 1011.1
20260507054236 64 130 0.0 0.0 0.12 0.13 0.13 99 1011.7
20260507053733 64 111 0.0 0.0 0.07 0.12 0.12 99 1011.3
20260507053231 64 116 0.0 0.0 0.05 0.11 0.11 99 1011.6
20260507052730 64 104 0.0 0.0 0.05 0.11 0.11 99 1011.9
20260507052225 64 109 0.0 0.0 0.07 0.10 0.10 99 1012.0
20260507051724 64 99 0.0 0.0 0.07 0.10 0.10 99 1011.9
20260507051220 64 111 0.0 0.0 0.00 0.09 0.09 99 1012.0
20260507050717 64 123 0.0 0.0 0.00 0.09 0.09 99 1011.8
20260507050214 64 126 0.0 0.0 0.05 0.09 0.09 99 1011.4
20260507045711 64 108 0.0 0.0 0.05 0.09 0.09 99 1011.9
20260507045207 64 116 0.0 0.0 0.07 0.08 0.08 99 1012.2
20260507044704 64 94 0.0 0.0 0.12 0.08 0.08 99 1011.7
20260507044201 64 121 0.0 0.0 0.12 0.07 0.07 99 1012.0
20260507043657 64 112 0.0 0.0 0.12 0.06 0.06 99 1011.8
20260507043154 64 102 0.0 0.0 0.19 0.06 0.06 99 1012.1
20260507042650 64 101 0.0 0.0 0.19 0.05 0.05 99 1012.4
20260507042145 64 125 0.0 0.0 0.19 0.03 0.03 99 1012.4
20260507041643 64 158 0.0 1.0 0.12 0.02 0.02 99 1012.8
20260507041139 64 158 0.0 0.0 0.00 0.00 0.00 99 1012.6
20260507040636 64 116 0.0 0.0 0.00 0.00 0.00 99 1012.2
20260507040132 64 142 0.0 0.0 0.00 0.00 0.00 99 1012.4
20260507035628 64 111 0.0 0.0 0.00 0.99 0.99 99 1011.9
20260507035124 64 112 0.0 0.0 0.00 0.99 0.99 99 1011.7
20260507034621 64 104 0.0 0.0 0.00 0.99 0.99 99 1011.6
20260507034119 64 99 0.0 0.0 0.00 0.99 0.99 99 1011.7
20260507033617 64 98 0.0 0.0 0.00 0.99 0.99 99 1011.6
20260507033114 64 100 0.0 0.0 0.00 0.99 0.99 99 1011.8
20260507032612 64 130 0.0 0.0 0.00 0.99 0.99 99 1011.8
20260507032108 64 119 0.0 0.0 0.00 0.99 0.99 99 1011.6
20260507031604 64 112 0.0 0.0 0.00 0.99 0.99 99 1011.7
20260507031101 64 138 0.0 0.0 0.00 0.99 0.99 99 1011.8
20260507030557 64 108 0.0 0.0 0.00 0.99 0.99 99 1012.0
20260507030056 64 113 0.0 0.0 0.00 0.99 0.99 99 1011.9
20260507025553 64 120 0.0 0.0 0.00 0.99 0.99 99 1012.2
20260507025049 64 128 0.0 0.0 0.00 0.99 0.99 99 1012.3
20260507024547 64 120 0.0 0.0 0.00 0.99 0.99 99 1012.4
20260507024044 64 119 0.0 0.0 0.00 0.99 0.99 99 1012.6
20260507023539 64 108 0.0 0.0 0.00 0.99 0.99 99 1012.5
20260507023038 64 108 0.0 0.0 0.00 0.99 0.99 99 1012.1
20260507022534 64 108 0.0 0.0 0.00 0.99 0.99 99 1012.4
20260507022029 64 114 0.0 0.0 0.05 0.99 0.99 99 1012.2
20260507021525 64 123 0.0 0.0 0.05 0.99 0.99 99 1012.6
20260507021022 64 118 0.0 0.0 0.00 0.98 0.98 99 1012.3
20260507020520 64 119 0.0 0.0 0.07 0.98 0.98 99 1012.1
20260507020016 64 107 0.0 0.0 0.35 0.98 0.98 99 1012.1
20260507015515 64 123 0.0 0.0 0.35 0.97 0.97 99 1012.2
20260507015012 64 94 0.0 0.0 0.12 0.93 0.93 99 1012.4
20260507014508 64 125 0.0 0.0 0.00 0.91 0.91 99 1012.3
20260507014004 64 95 0.0 1.0 0.00 0.91 0.91 99 1011.9
20260507013500 64 72 0.0 0.0 0.05 0.91 0.91 99 1012.1
20260507012958 65 97 0.0 0.0 0.31 0.91 0.91 99 1012.0
20260507012455 65 100 0.0 0.0 0.78 0.90 0.90 99 1012.0
20260507011951 64 84 0.0 0.0 0.78 0.87 0.87 99 1012.1
20260507011448 64 109 0.0 0.0 0.38 0.77 0.77 99 1012.2
20260507010944 65 88 0.0 0.0 0.35 0.74 0.74 99 1012.0
20260507010439 64 113 0.0 0.0 0.61 0.72 0.72 99 1012.1
20260507005936 64 121 0.0 0.0 0.47 0.67 0.67 99 1011.7
20260507005433 65 96 0.0 0.0 0.47 0.62 0.62 99 1012.3
20260507004930 64 131 0.0 0.0 0.35 0.59 0.59 99 1012.2
20260507004427 64 188 2.0 2.0 0.12 0.54 0.54 99 1012.6
20260507003924 64 82 1.0 2.0 0.19 0.53 0.53 99 1011.7
20260507003419 64 90 1.0 1.0 0.42 0.52 0.52 99 1011.5
20260507002914 64 84 2.0 2.0 1.13 0.50 0.50 99 1011.5
20260507002411 65 113 0.0 0.0 1.25 0.47 0.47 99 1011.7
20260507001908 65 165 1.0 2.0 0.78 0.32 0.32 99 1012.5
20260507001405 65 40 3.0 3.0 0.66 0.26 0.26 99 1011.7
20260507000902 65 73 1.0 1.0 0.38 0.18 0.18 99 1012.1
20260507000358 65 140 0.0 0.0 0.31 0.15 0.15 99 1012.2
20260506235853 66 64 1.0 2.0 0.24 0.13 0.13 98 1011.9
20260506235351 66 104 0.0 0.0 0.05 0.10 0.10 98 1012.0
20260506234846 66 114 0.0 0.0 0.12 0.09 0.09 97 1011.7
20260506234344 66 142 0.0 0.0 0.42 0.09 0.09 97 1011.6
20260506233842 67 136 0.0 0.0 0.42 0.08 0.08 96 1011.6
20260506233337 68 128 1.0 2.0 0.07 0.02 0.02 94 1011.5
20260506232834 68 102 0.0 0.0 0.00 0.01 0.01 92 1011.5
20260506232330 68 110 0.0 0.0 0.00 0.01 0.01 91 1011.1
20260506231821 68 80 0.0 1.0 0.00 0.01 0.01 90 1011.1
20260506231319 68 102 0.0 0.0 0.00 0.01 0.01 89 1011.1
20260506230816 69 91 0.0 0.0 0.00 0.01 0.01 88 1010.9
20260506230313 69 103 0.0 0.0 0.00 0.01 0.01 88 1011.1
20260506225809 69 108 0.0 0.0 0.00 0.01 0.01 88 1011.1
20260506225307 69 123 0.0 0.0 0.00 0.01 0.01 88 1011.3
20260506224803 69 93 0.0 0.0 0.00 0.01 0.01 88 1011.5
20260506224301 69 105 0.0 0.0 0.00 0.01 0.01 88 1011.2
20260506223757 70 128 0.0 1.0 0.00 0.01 0.01 89 1011.1
20260506223252 70 99 0.0 0.0 0.00 0.01 0.01 87 1011.0
20260506222749 70 116 0.0 0.0 0.00 0.01 0.01 87 1011.0
20260506222245 71 99 0.0 0.0 0.00 0.01 0.01 87 1010.9
20260506221743 71 100 0.0 0.0 0.00 0.01 0.01 86 1010.9
20260506221240 71 117 0.0 0.0 0.00 0.01 0.01 86 1011.0
20260506220738 71 91 0.0 0.0 0.00 0.01 0.01 86 1010.8
20260506220232 71 112 0.0 0.0 0.00 0.01 0.01 85 1010.9
20260506215729 71 72 0.0 0.0 0.00 0.01 0.01 85 1011.0
20260506215225 73 93 0.0 1.0 0.00 0.01 0.01 84 1010.9
20260506214721 74 128 0.0 1.0 0.00 0.01 0.01 81 1010.9
20260506214219 75 82 0.0 0.0 0.00 0.01 0.01 84 1011.0
20260506213717 75 129 0.0 1.0 0.00 0.01 0.01 83 1010.8
20260506213214 76 193 1.0 1.0 0.00 0.01 0.01 83 1010.8
20260506212711 76 154 1.0 1.0 0.00 0.01 0.01 82 1010.7
20260506212206 76 122 1.0 1.0 0.00 0.01 0.01 82 1010.9
20260506211702 76 157 0.0 0.0 0.00 0.01 0.01 82 1010.7
20260506211159 76 127 0.0 0.0 0.00 0.01 0.01 82 1010.9
20260506210656 76 216 1.0 2.0 0.00 0.01 0.01 81 1011.0
20260506210152 76 276 0.0 0.0 0.00 0.01 0.01 81 1010.7
20260506205650 76 202 1.0 2.0 0.00 0.01 0.01 81 1010.8
20260506205144 76 160 1.0 1.0 0.00 0.01 0.01 81 1010.9
20260506204643 76 118 2.0 2.0 0.00 0.01 0.01 80 1010.8
20260506204139 76 209 2.0 3.0 0.00 0.01 0.01 80 1010.9
20260506203637 76 205 1.0 2.0 0.00 0.01 0.01 81 1011.2
20260506203134 76 139 1.0 2.0 0.00 0.01 0.01 81 1011.2
20260506202632 77 122 0.0 1.0 0.00 0.01 0.01 81 1011.1
20260506202128 78 205 2.0 3.0 0.00 0.01 0.01 80 1011.1
20260506201625 78 147 1.0 2.0 0.00 0.01 0.01 79 1011.2
20260506201121 78 146 0.0 1.0 0.00 0.01 0.01 80 1011.4
20260506200618 77 158 0.0 0.0 0.00 0.01 0.01 82 1011.4
20260506200115 78 198 1.0 2.0 0.00 0.01 0.01 81 1011.4
20260506195611 78 200 1.0 1.0 0.00 0.01 0.01 81 1011.5
20260506195108 78 144 0.0 0.0 0.00 0.01 0.01 81 1011.2
20260506194605 78 147 0.0 0.0 0.00 0.01 0.01 81 1011.4
20260506194101 78 141 0.0 0.0 0.00 0.01 0.01 81 1011.5
20260506193600 77 141 0.0 0.0 0.00 0.01 0.01 80 1011.5
20260506193056 78 159 0.0 0.0 0.00 0.01 0.01 80 1011.8
20260506192553 78 119 0.0 0.0 0.00 0.01 0.01 82 1011.9
20260506192049 77 195 2.0 2.0 0.00 0.01 0.01 82 1011.9
20260506191546 77 154 0.0 0.0 0.00 0.01 0.01 79 1012.0
20260506191042 78 228 1.0 1.0 0.00 0.01 0.01 79 1012.1
20260506190539 77 111 1.0 1.0 0.00 0.01 0.01 79 1012.1
20260506190036 76 150 0.0 0.0 0.00 0.01 0.01 81 1012.2
20260506185533 76 175 0.0 0.0 0.00 0.01 0.01 82 1012.3
20260506185030 76 177 1.0 1.0 0.00 0.01 0.01 83 1012.4
20260506184527 76 136 0.0 0.0 0.00 0.01 0.01 84 1012.4
20260506184024 76 186 1.0 1.0 0.00 0.01 0.01 82 1012.3
20260506183520 76 214 1.0 3.0 0.00 0.01 0.01 82 1012.8
20260506183017 76 135 0.0 1.0 0.00 0.01 0.01 83 1012.7
20260506182514 75 220 1.0 3.0 0.00 0.01 0.01 83 1013.0
20260506182011 75 142 0.0 0.0 0.00 0.01 0.01 84 1013.0
20260506181509 74 151 0.0 0.0 0.00 0.01 0.01 85 1012.9
20260506181006 73 148 0.0 1.0 0.00 0.01 0.01 86 1012.9
20260506180503 73 133 0.0 0.0 0.00 0.01 0.01 86 1013.2
20260506175959 73 137 0.0 0.0 0.00 0.01 0.01 86 1013.5
20260506175455 74 130 0.0 0.0 0.00 0.01 0.01 85 1013.2
20260506174952 74 164 0.0 0.0 0.00 0.01 0.01 85 1013.5
20260506174451 74 135 0.0 0.0 0.00 0.01 0.01 84 1013.3
20260506173946 74 120 0.0 0.0 0.00 0.01 0.01 83 1013.3
20260506173444 75 203 1.0 2.0 0.00 0.01 0.01 83 1013.2
20260506172941 75 123 0.0 1.0 0.00 0.01 0.01 82 1013.2
20260506172438 75 171 1.0 1.0 0.00 0.01 0.01 82 1013.1
20260506171934 76 158 2.0 2.0 0.00 0.01 0.01 81 1013.0
20260506171431 76 220 1.0 1.0 0.00 0.01 0.01 80 1012.8
20260506170924 76 170 0.0 0.0 0.00 0.01 0.01 81 1012.9
20260506170419 76 205 2.0 2.0 0.00 0.01 0.01 81 1012.8
20260506165913 76 139 0.0 1.0 0.00 0.01 0.01 80 1012.6
20260506165411 76 175 1.0 2.0 0.00 0.01 0.01 79 1012.7
20260506164907 75 123 0.0 0.0 0.00 0.01 0.01 81 1012.7
20260506164403 74 114 0.0 0.0 0.00 0.01 0.01 84 1012.8
20260506163901 74 158 1.0 1.0 0.00 0.01 0.01 83 1012.9
20260506163356 74 171 0.0 1.0 0.00 0.01 0.01 83 1012.9
20260506162851 73 184 1.0 1.0 0.00 0.01 0.01 83 1012.8
20260506162349 73 193 1.0 1.0 0.00 0.01 0.01 85 1012.8
20260506161846 72 190 2.0 2.0 0.00 0.01 0.01 85 1013.1
20260506161343 72 190 1.0 2.0 0.00 0.01 0.01 86 1013.0
20260506160836 72 207 2.0 3.0 0.00 0.01 0.01 87 1013.5
20260506160332 73 189 2.0 2.0 0.00 0.01 0.01 86 1013.6
20260506155830 72 214 3.0 3.0 0.00 0.01 0.01 86 1013.2
20260506155327 72 279 2.0 3.0 0.00 0.01 0.01 85 1013.2
20260506153439 71 116 0.0 0.0 0.00 0.01 0.01 92 1013.7
20260506152937 70 131 0.0 0.0 0.00 0.01 0.01 92 1013.6
20260506152433 69 116 0.0 0.0 0.00 0.01 0.01 95 1013.8
20260506151932 68 139 1.0 1.0 0.00 0.01 0.01 96 1013.3
20260506151429 68 131 0.0 0.0 0.00 0.01 0.01 98 1013.8
20260506150927 67 110 0.0 0.0 0.00 0.01 0.01 97 1013.9
20260506150422 67 131 0.0 0.0 0.00 0.01 0.01 97 1014.5
20260506145919 67 135 0.0 0.0 0.05 0.01 0.01 96 1014.6
20260506145416 67 131 0.0 0.0 0.05 0.01 0.01 96 1014.7
20260506144913 67 153 0.0 1.0 0.00 0.00 0.00 95 1015.0
20260506144410 67 131 0.0 0.0 0.00 0.00 0.00 95 1014.5
20260506143908 66 135 0.0 0.0 0.00 0.00 0.00 95 1014.6
20260506143405 66 129 0.0 0.0 0.00 0.00 0.00 95 1014.2
20260506142903 66 169 1.0 1.0 0.00 0.00 0.00 95 1014.3
20260506142401 66 153 0.0 1.0 0.00 0.00 0.00 95 1014.4
20260506141859 66 164 0.0 0.0 0.00 0.00 0.00 94 1014.2
20260506141356 66 158 0.0 0.0 0.00 0.00 0.00 93 1014.0
20260506140854 66 158 0.0 0.0 0.00 0.00 0.00 92 1014.4
20260506140351 67 185 1.0 1.0 0.00 0.00 0.00 91 1014.4
20260506135848 67 166 0.0 1.0 0.00 0.00 0.00 89 1014.2
20260506135345 68 155 0.0 0.0 0.00 0.00 0.00 88 1014.1
20260506134841 68 180 1.0 1.0 0.00 0.00 0.00 88 1014.3
20260506134337 68 116 2.0 3.0 0.00 0.00 0.00 87 1014.1
20260506133835 68 186 1.0 2.0 0.00 0.00 0.00 88 1013.7
20260506133331 68 179 1.0 1.0 0.00 0.00 0.00 88 1013.8
20260506132828 68 137 0.0 1.0 0.00 0.00 0.00 88 1013.7
20260506132325 68 121 0.0 0.0 0.00 0.00 0.00 88 1013.5
20260506131823 67 196 0.0 0.0 0.00 0.00 0.00 88 1013.3
20260506131319 67 151 0.0 0.0 0.00 0.00 0.00 88 1013.2
20260506130817 67 167 0.0 0.0 0.00 0.00 0.00 88 1013.3